Cleveland, OH

1:27 PM EST on December 17, 2017 (GMT -0500)
Cleveland-Hopkins International

Weather History for KCLE - October, 2013

Change the Weather History Date:

Thursday, October 3, 2013

  Actual Average Record
Temperature  
Mean Temperature 72 °F 58 °F  
Max Temperature 80 °F 67 °F 89 °F (1953)
Min Temperature 63 °F 49 °F 29 °F (1975)
Degree Days  
Heating Degree Days 0 8  
Month to date heating degree days 0 22  
Since 1 July heating degree days 94 125  
Cooling Degree Days 7 1  
Month to date cooling degree days 15 3  
Year to date cooling degree days 870 807  
Growing Degree Days 20 (Base 50)    
Moisture  
Dew Point 62 °F    
Average Humidity 76    
Maximum Humidity 90    
Minimum Humidity 62    
Precipitation  
Precipitation T in 0.11 in 1.27 in (1986)
Month to date precipitation T 0.32  
Year to date precipitation 30.17 29.67  
Snow  
Snow 0.00 in 0.00 in - ()
Month to date snowfall 0.0 0.0  
Since 1 July snowfall 0.0 0.0  
Since 1 September snowfall 0.0 0.0  
Snow Depth 0.00 in    
Sea Level Pressure  
Sea Level Pressure 30.04 in    
Wind  
Wind Speed 8 mph (South)    
Max Wind Speed 16 mph    
Max Gust Speed 19 mph    
Visibility 10 miles    
Events Rain    
T = Trace of Precipitation, MM = Missing Value Source: NWS Daily Summary

Daily Weather History Graph

Daily Weather History Graph

Search for Another Location

Airport or City:

Trip Planner

Search our weather history database for the weather conditions in past years. The results will help you decide how hot, cold, wet, or windy it might be!

Date:

Astronomy

Oct. 03, 2013 Rise Set
Actual Time 7:26 AM EDT 7:05 PM EDT
Civil Twilight 6:58 AM EDT 7:33 PM EDT
Nautical Twilight 6:26 AM EDT 8:05 PM EDT
Astronomical Twilight 5:54 AM EDT 8:37 PM EDT
Moon 5:57 AM EDT (10/3) 6:13 PM EDT (10/3)
Length of Visible Light 12h 34m
Length of Day
11h 38m
Waning Crescent, 2% of the Moon is Illuminated
Oct 3
Waning Crescent
Oct 4
New
Oct 11
First Quarter
Oct 18
Full
Oct 26
Last Quarter

Hourly Weather History & Observations

Time (EDT) Temp. Dew Point Humidity Pressure Visibility Wind Dir Wind Speed Gust Speed Precip Events Conditions
12:51 AM 64.0 °F 59.0 °F 84% 30.09 in 9.0 mi Calm Calm - N/A   Mostly Cloudy
1:51 AM 64.0 °F 57.0 °F 78% 30.08 in 10.0 mi ESE 4.6 mph - N/A   Mostly Cloudy
2:51 AM 63.0 °F 57.9 °F 84% 30.08 in 10.0 mi SE 4.6 mph - N/A   Mostly Cloudy
3:51 AM 63.0 °F 59.0 °F 87% 30.06 in 10.0 mi SE 3.5 mph - N/A   Overcast
4:51 AM 64.9 °F 55.9 °F 73% 30.06 in 10.0 mi SSE 5.8 mph - N/A   Mostly Cloudy
5:51 AM 66.0 °F 55.9 °F 70% 30.06 in 10.0 mi SE 6.9 mph - N/A   Overcast
6:51 AM 66.0 °F 57.9 °F 75% 30.06 in 10.0 mi SE 4.6 mph - N/A   Mostly Cloudy
7:51 AM 64.9 °F 59.0 °F 81% 30.07 in 10.0 mi SSE 10.4 mph - N/A   Mostly Cloudy
8:51 AM 66.9 °F 61.0 °F 81% 30.07 in 7.0 mi SSE 9.2 mph - N/A   Mostly Cloudy
9:51 AM 71.1 °F 64.0 °F 78% 30.07 in 8.0 mi SSW 8.1 mph - N/A   Mostly Cloudy
10:51 AM 73.9 °F 66.0 °F 76% 30.07 in 8.0 mi SSW 11.5 mph - N/A   Mostly Cloudy
11:51 AM 77.0 °F 66.9 °F 71% 30.05 in 9.0 mi SSW 9.2 mph - N/A   Mostly Cloudy
12:51 PM 78.1 °F 66.0 °F 66% 30.05 in 10.0 mi WSW 11.5 mph - N/A   Mostly Cloudy
1:51 PM 78.1 °F 66.0 °F 66% 30.03 in 10.0 mi WSW 9.2 mph - N/A   Mostly Cloudy
2:51 PM 79.0 °F 66.0 °F 64% 30.01 in 10.0 mi WSW 9.2 mph - N/A   Overcast
3:51 PM 79.0 °F 64.9 °F 62% 30.00 in 10.0 mi WSW 11.5 mph - N/A   Mostly Cloudy
4:51 PM 75.9 °F 64.0 °F 67% 30.01 in 10.0 mi WSW 9.2 mph - N/A   Mostly Cloudy
5:51 PM 75.0 °F 64.9 °F 71% 30.01 in 10.0 mi SW 8.1 mph - 0.00 in Rain Light Rain
6:51 PM 73.0 °F 64.9 °F 76% 30.00 in 10.0 mi SSW 9.2 mph - 0.00 in   Scattered Clouds
7:51 PM 70.0 °F 64.0 °F 81% 30.01 in 10.0 mi South 10.4 mph - N/A   Scattered Clouds
8:51 PM 70.0 °F 63.0 °F 78% 30.01 in 10.0 mi South 9.2 mph - N/A   Mostly Cloudy
9:51 PM 70.0 °F 64.0 °F 81% 30.03 in 10.0 mi SSW 8.1 mph - N/A   Mostly Cloudy
10:51 PM 69.1 °F 64.0 °F 84% 30.04 in 10.0 mi South 9.2 mph - 0.00 in Rain Light Rain
11:51 PM 69.1 °F 64.9 °F 87% 30.04 in 10.0 mi South 10.4 mph - 0.00 in   Overcast